Location: Caltech
(34.1382°N, 118.1253°W)
Time: 20:18:51
(UTC-07:00)

Iridium 49 - Visible Passes

Search period start: 23 April 2014 00:00
Search period end: 03 May 2014 00:00
Orbit: 776 x 779 km, 86.4° (Epoch: 23 April)

Date Brightness Start Highest point End Pass type
(mag) Time Alt. Az. Time Alt. Az. Time Alt. Az.
23 Apr 8.7 00:06:12 10° NNW 00:07:09 15° NNW 00:07:09 15° NNW visible
23 Apr 8.4 23:32:31 10° N 23:33:53 19° N 23:33:53 19° N visible
24 Apr 8.2 22:59:12 10° NNE 23:00:37 18° NNE 23:00:37 18° NNE visible
25 Apr 8.3 22:26:22 10° NNE 22:27:21 14° NE 22:27:21 14° NE visible
26 Apr 8.6 00:06:39 10° NNW 00:07:50 16° NNW 00:07:50 16° NNW visible
26 Apr 8.2 23:32:42 10° N 23:34:34 22° NNW 23:34:34 22° NNW visible
27 Apr 7.8 22:59:09 10° N 23:01:19 25° N 23:01:19 25° N visible
28 Apr 7.8 22:26:00 10° NNE 22:28:05 22° NNE 22:28:05 22° NNE visible
29 Apr 8.6 00:07:20 10° NW 00:08:34 15° NW 00:08:34 15° NW visible
29 Apr 8.1 21:53:27 10° NE 21:54:51 15° NE 21:54:51 15° NE visible
29 Apr 8.0 23:33:01 10° NNW 23:35:20 24° NNW 23:35:20 24° NNW visible
30 Apr 7.5 22:59:13 10° N 23:02:06 34° N 23:02:06 34° N visible
01 May 7.2 22:25:49 10° N 22:28:53 33° NNE 22:28:53 33° NNE visible
02 May 8.7 00:08:26 10° NW 00:09:22 12° WNW 00:09:22 12° WNW visible
02 May 7.5 21:52:52 10° NNE 21:55:40 23° NE 21:55:40 23° NE visible
02 May 8.1 23:33:30 10° NNW 23:36:10 23° NW 23:36:10 23° NW visible
